Volver al catálogo

RASSVET-1 NO. 1

ActivoRadioaficionadoSSO
NORAD 57179·PAYLOAD·🇷🇺 Russia
Este nombre de satélite aún no ha sido confirmado por fuentes oficiales.

Lanzado Jun 27, 2023 desde Vostochny Cosmodrome

Loading…

Próximos Pases (próximas 24 horas)

TLE

ActualizadoSource: Space-Track

Época: Sep 14, 2026, 14:35 UTC

1 57179U 23091P   26257.60786461  .00002986  00000-0  15389-3 0  9998
2 57179  97.4998 312.7067 0014929 168.9722 191.1842 15.17067154177348

Sigue RASSVET-1 NO. 1 en tiempo real con AllMySat

Download on the App Store